TimePST,TemperatureF,Dew PointF,Humidity,Sea Level PressureIn,VisibilityMPH,Wind Direction,Wind SpeedMPH,Gust SpeedMPH,PrecipitationIn,Events,Conditions,WindDirDegrees,DateUTC
12:40 AM,26.6,24.8,93,30.26,0.5,NNE,5.8,-,N/A,Fog,Light Freezing Fog,20,2013-11-29 08:40:00
12:52 AM,25.0,24.1,96,30.30,1.0,North,3.5,-,N/A,,Mist,360,2013-11-29 08:52:00
12:59 AM,26.6,24.8,93,30.25,0.2,NNE,3.5,-,N/A,Fog,Light Freezing Fog,30,2013-11-29 08:59:00
1:49 AM,24.8,23.0,93,30.25,0.8,Calm,Calm,-,N/A,,Mist,0,2013-11-29 09:49:00
1:52 AM,24.1,23.0,96,30.30,0.5,Calm,Calm,-,N/A,Fog,Light Freezing Fog,0,2013-11-29 09:52:00
2:30 AM,23.0,21.2,93,30.26,2.5,NNE,4.6,-,N/A,,Overcast,30,2013-11-29 10:30:00
2:37 AM,21.2,19.4,93,30.26,4.0,Calm,Calm,-,N/A,,Overcast,0,2013-11-29 10:37:00
2:52 AM,21.9,19.9,92,30.31,3.0,NE,3.5,-,N/A,,Overcast,40,2013-11-29 10:52:00
3:33 AM,21.2,19.4,93,30.26,2.5,Calm,Calm,-,N/A,,Overcast,0,2013-11-29 11:33:00
3:52 AM,21.9,19.0,89,30.31,3.0,Calm,Calm,-,N/A,,Overcast,0,2013-11-29 11:52:00
4:04 AM,21.2,19.4,93,30.26,2.0,Calm,Calm,-,N/A,,Overcast,0,2013-11-29 12:04:00
4:28 AM,21.2,19.4,93,30.26,1.8,Calm,Calm,-,N/A,,Overcast,0,2013-11-29 12:28:00
4:37 AM,21.2,21.2,100,30.26,2.5,Calm,Calm,-,N/A,,Overcast,0,2013-11-29 12:37:00
4:52 AM,21.9,19.9,92,30.31,2.5,Calm,Calm,-,N/A,,Overcast,0,2013-11-29 12:52:00
5:24 AM,21.2,21.2,100,30.26,0.8,Calm,Calm,-,N/A,,Overcast,0,2013-11-29 13:24:00
5:37 AM,21.2,21.2,100,30.25,0.2,Calm,Calm,-,N/A,Fog,Light Freezing Fog,0,2013-11-29 13:37:00
5:52 AM,23.0,21.0,92,30.30,0.2,NNE,3.5,-,N/A,Fog,Light Freezing Fog,30,2013-11-29 13:52:00
6:52 AM,24.1,21.9,91,30.31,0.2,Calm,Calm,-,N/A,Fog,Light Freezing Fog,0,2013-11-29 14:52:00
7:52 AM,24.1,21.9,91,30.31,0.2,NNE,4.6,-,0.00,Fog-Snow,Light Snow,30,2013-11-29 15:52:00
8:52 AM,26.1,24.1,92,30.32,0.5,NNE,3.5,-,0.00,Fog,Light Freezing Fog,30,2013-11-29 16:52:00
9:16 AM,26.6,24.8,93,30.28,0.2,ENE,3.5,-,0.00,Fog-Snow,Light Snow,70,2013-11-29 17:16:00
9:52 AM,26.1,24.1,92,30.33,0.8,NNE,3.5,-,0.00,Snow,Light Snow,20,2013-11-29 17:52:00
10:52 AM,27.0,25.0,92,30.32,1.0,Calm,Calm,-,0.00,Snow,Light Snow,0,2013-11-29 18:52:00
11:04 AM,26.6,24.8,93,30.27,1.8,Calm,Calm,-,0.00,,Overcast,0,2013-11-29 19:04:00
11:13 AM,26.6,24.8,93,30.27,1.5,Calm,Calm,-,0.00,,Overcast,0,2013-11-29 19:13:00
11:52 AM,28.0,25.0,88,30.32,1.5,Calm,Calm,-,0.00,,Overcast,0,2013-11-29 19:52:00
12:24 PM,26.6,24.8,93,30.26,1.5,Calm,Calm,-,0.00,Rain,Light Freezing Rain,0,2013-11-29 20:24:00
12:52 PM,27.0,25.0,92,30.31,2.0,Calm,Calm,-,0.01,Rain,Light Freezing Rain,0,2013-11-29 20:52:00
12:59 PM,26.6,24.8,93,30.26,2.0,Calm,Calm,-,0.00,,Overcast,0,2013-11-29 20:59:00
1:52 PM,28.0,26.1,92,30.31,2.0,Calm,Calm,-,0.00,,Overcast,0,2013-11-29 21:52:00
2:52 PM,28.0,26.1,92,30.30,2.0,North,3.5,-,N/A,,Overcast,350,2013-11-29 22:52:00
3:52 PM,28.0,26.1,92,30.32,2.0,Calm,Calm,-,N/A,,Overcast,0,2013-11-29 23:52:00
3:59 PM,28.4,26.6,93,30.27,3.0,Calm,Calm,-,N/A,,Overcast,0,2013-11-29 23:59:00
4:52 PM,28.9,27.0,92,30.32,3.0,Calm,Calm,-,N/A,,Overcast,0,2013-11-30 00:52:00
5:52 PM,28.9,28.0,96,30.34,4.0,Calm,Calm,-,N/A,,Overcast,0,2013-11-30 01:52:00
6:31 PM,28.4,28.4,100,30.29,4.0,WSW,4.6,-,N/A,,Overcast,240,2013-11-30 02:31:00
6:52 PM,28.9,28.0,96,30.33,3.0,Calm,Calm,-,N/A,,Overcast,0,2013-11-30 02:52:00
7:52 PM,30.0,28.9,96,30.34,3.0,Calm,Calm,-,N/A,,Overcast,0,2013-11-30 03:52:00
8:52 PM,30.9,28.9,92,30.35,3.0,Calm,Calm,-,N/A,,Overcast,0,2013-11-30 04:52:00
9:05 PM,30.2,28.4,93,30.30,2.5,SW,3.5,-,N/A,,Overcast,230,2013-11-30 05:05:00
9:15 PM,30.2,28.4,93,30.29,3.0,WSW,4.6,-,N/A,,Overcast,250,2013-11-30 05:15:00
9:52 PM,30.0,28.0,92,30.35,3.0,WNW,3.5,-,N/A,,Overcast,290,2013-11-30 05:52:00
9:59 PM,30.2,28.4,93,30.30,2.5,West,3.5,-,N/A,,Overcast,270,2013-11-30 05:59:00
10:08 PM,30.2,28.4,93,30.30,3.0,Calm,Calm,-,N/A,,Overcast,0,2013-11-30 06:08:00
10:52 PM,30.0,28.9,96,30.35,3.0,Calm,Calm,-,N/A,,Overcast,0,2013-11-30 06:52:00
11:07 PM,30.2,28.4,93,30.30,3.0,SW,3.5,-,N/A,,Overcast,220,2013-11-30 07:07:00
11:52 PM,30.9,28.9,92,30.34,3.0,SW,4.6,-,N/A,,Overcast,230,2013-11-30 07:52:00